Time,TemperatureF,DewpointF,PressureIn,WindDirection,WindDirectionDegrees,WindSpeedMPH,WindSpeedGustMPH,Humidity,HourlyPrecipIn,Conditions,Clouds,dailyrainin,SoftwareType,DateUTC
2013-06-03 00:02:00,75.4,71.0,29.80,SW,231,2.0,10.0,87,0.00,,,0.00,weatherlink.com 1.10,2013-06-03 04:02:00,
2013-06-03 00:16:00,75.3,72.0,29.80,SW,219,5.0,8.0,88,0.00,,,0.00,weatherlink.com 1.10,2013-06-03 04:16:00,
2013-06-03 00:31:00,75.3,72.0,29.79,WSW,253,3.0,8.0,88,0.00,,,0.00,weatherlink.com 1.10,2013-06-03 04:31:00,
2013-06-03 00:46:00,75.4,72.0,29.80,WSW,248,3.0,7.0,88,0.00,,,0.00,weatherlink.com 1.10,2013-06-03 04:46:00,
2013-06-03 01:02:00,75.2,72.0,29.79,SW,232,3.0,7.0,88,0.00,,,0.00,weatherlink.com 1.10,2013-06-03 05:02:00,
2013-06-03 01:17:00,74.9,72.0,29.79,SSW,198,3.0,6.0,89,0.00,,,0.00,weatherlink.com 1.10,2013-06-03 05:17:00,
2013-06-03 01:32:00,74.8,71.0,29.79,SW,233,4.0,7.0,89,0.00,,,0.00,weatherlink.com 1.10,2013-06-03 05:32:00,
2013-06-03 01:47:00,74.9,72.0,29.78,WSW,252,3.0,6.0,89,0.00,,,0.00,weatherlink.com 1.10,2013-06-03 05:47:00,
2013-06-03 02:03:00,74.9,72.0,29.78,SSW,208,5.0,9.0,90,0.00,,,0.00,weatherlink.com 1.10,2013-06-03 06:03:00,
2013-06-03 02:17:00,75.1,72.0,29.77,SSW,201,5.0,8.0,89,0.00,,,0.00,weatherlink.com 1.10,2013-06-03 06:17:00,
2013-06-03 02:32:00,75.4,72.0,29.77,South,187,9.0,14.0,89,0.00,,,0.00,weatherlink.com 1.10,2013-06-03 06:32:00,
2013-06-03 02:47:00,75.6,72.0,29.77,SSW,192,8.0,10.0,89,0.00,,,0.00,weatherlink.com 1.10,2013-06-03 06:47:00,
2013-06-03 03:03:00,75.5,72.0,29.77,SSW,195,6.0,12.0,88,0.00,,,0.00,weatherlink.com 1.10,2013-06-03 07:03:00,
2013-06-03 03:18:00,75.5,72.0,29.77,WSW,238,4.0,12.0,88,0.00,,,0.00,weatherlink.com 1.10,2013-06-03 07:18:00,
2013-06-03 03:33:00,75.4,72.0,29.76,SSW,205,2.0,8.0,88,0.00,,,0.00,weatherlink.com 1.10,2013-06-03 07:33:00,
2013-06-03 03:48:00,75.3,72.0,29.76,SSW,198,2.0,10.0,88,0.00,,,0.00,weatherlink.com 1.10,2013-06-03 07:48:00,
2013-06-03 04:04:00,75.2,72.0,29.75,SW,218,5.0,7.0,89,0.00,,,0.00,weatherlink.com 1.10,2013-06-03 08:04:00,
2013-06-03 04:18:00,75.2,72.0,29.75,WSW,242,4.0,8.0,89,0.00,,,0.00,weatherlink.com 1.10,2013-06-03 08:18:00,
2013-06-03 04:33:00,75.3,72.0,29.75,SW,232,6.0,8.0,89,0.00,,,0.00,weatherlink.com 1.10,2013-06-03 08:33:00,
2013-06-03 04:48:00,75.5,72.0,29.75,SW,219,3.0,7.0,89,0.00,,,0.00,weatherlink.com 1.10,2013-06-03 08:48:00,
2013-06-03 05:04:00,75.4,72.0,29.75,SSW,205,4.0,10.0,89,0.00,,,0.00,weatherlink.com 1.10,2013-06-03 09:04:00,
2013-06-03 05:19:00,75.4,72.0,29.75,SE,133,3.0,10.0,89,0.00,,,0.00,weatherlink.com 1.10,2013-06-03 09:19:00,
2013-06-03 05:34:00,75.4,72.0,29.75,SW,222,4.0,11.0,89,0.00,,,0.00,weatherlink.com 1.10,2013-06-03 09:34:00,
2013-06-03 05:49:00,75.5,72.0,29.75,SSW,207,3.0,8.0,89,0.00,,,0.00,weatherlink.com 1.10,2013-06-03 09:49:00,
2013-06-03 06:05:00,75.4,72.0,29.75,SW,225,6.0,11.0,89,0.00,,,0.00,weatherlink.com 1.10,2013-06-03 10:05:00,
2013-06-03 06:19:00,75.5,72.0,29.75,SW,229,5.0,11.0,89,0.00,,,0.00,weatherlink.com 1.10,2013-06-03 10:19:00,
2013-06-03 06:35:00,75.6,72.0,29.75,SW,216,4.0,12.0,89,0.00,,,0.00,weatherlink.com 1.10,2013-06-03 10:35:00,
2013-06-03 07:05:00,75.4,72.0,29.75,South,187,3.0,12.0,89,0.00,,,0.00,weatherlink.com 1.10,2013-06-03 11:05:00,
2013-06-03 07:21:00,75.5,73.0,29.75,SSW,204,4.0,10.0,90,0.00,,,0.00,weatherlink.com 1.10,2013-06-03 11:21:00,
2013-06-03 07:35:00,75.9,73.0,29.75,WSW,239,6.0,8.0,90,0.00,,,0.00,weatherlink.com 1.10,2013-06-03 11:35:00,
2013-06-03 07:51:00,76.4,73.0,29.76,SW,236,3.0,7.0,89,0.00,,,0.00,weatherlink.com 1.10,2013-06-03 11:51:00,
2013-06-03 08:21:00,77.1,73.0,29.76,SW,217,10.0,15.0,87,0.00,,,0.00,weatherlink.com 1.10,2013-06-03 12:21:00,
2013-06-03 08:35:00,77.3,73.0,29.76,SW,216,5.0,17.0,87,0.00,,,0.00,weatherlink.com 1.10,2013-06-03 12:35:00,
2013-06-03 08:51:00,77.5,73.0,29.75,SSW,212,7.0,14.0,86,0.00,,,0.00,weatherlink.com 1.10,2013-06-03 12:51:00,
2013-06-03 09:07:00,77.1,73.0,29.75,SW,217,9.0,17.0,88,0.00,,,0.00,weatherlink.com 1.10,2013-06-03 13:07:00,
2013-06-03 09:21:00,76.6,73.0,29.75,WSW,255,3.0,11.0,89,0.00,,,0.00,weatherlink.com 1.10,2013-06-03 13:21:00,
2013-06-03 09:36:00,75.1,72.0,29.76,WSW,248,6.0,20.0,89,0.17,,,0.17,weatherlink.com 1.10,2013-06-03 13:36:00,
2013-06-03 09:51:00,72.6,71.0,29.75,SW,233,4.0,14.0,93,0.36,,,0.36,weatherlink.com 1.10,2013-06-03 13:51:00,
2013-06-03 10:07:00,74.6,73.0,29.75,SSW,203,3.0,13.0,95,0.36,,,0.36,weatherlink.com 1.10,2013-06-03 14:07:00,
2013-06-03 10:22:00,77.0,75.0,29.75,SW,224,6.0,16.0,93,0.36,,,0.36,weatherlink.com 1.10,2013-06-03 14:22:00,
2013-06-03 10:37:00,77.4,75.0,29.75,SW,225,8.0,13.0,91,0.17,,,0.36,weatherlink.com 1.10,2013-06-03 14:37:00,
2013-06-03 10:52:00,78.2,75.0,29.74,SW,216,7.0,16.0,91,0.00,,,0.36,weatherlink.com 1.10,2013-06-03 14:52:00,
2013-06-03 11:08:00,79.9,76.0,29.74,West,262,6.0,10.0,88,0.00,,,0.36,weatherlink.com 1.10,2013-06-03 15:08:00,
2013-06-03 11:22:00,80.1,75.0,29.73,SSW,210,5.0,14.0,85,0.00,,,0.36,weatherlink.com 1.10,2013-06-03 15:22:00,
2013-06-03 11:37:00,79.8,75.0,29.73,SW,230,8.0,16.0,84,0.00,,,0.36,weatherlink.com 1.10,2013-06-03 15:37:00,
2013-06-03 11:53:00,79.2,74.0,29.73,SSW,208,10.0,17.0,84,0.00,,,0.36,weatherlink.com 1.10,2013-06-03 15:53:00,
2013-06-03 12:08:00,78.8,74.0,29.73,SSW,192,8.0,20.0,85,0.00,,,0.36,weatherlink.com 1.10,2013-06-03 16:08:00,
2013-06-03 12:23:00,78.3,74.0,29.72,SW,232,9.0,20.0,86,0.00,,,0.36,weatherlink.com 1.10,2013-06-03 16:23:00,
2013-06-03 12:38:00,78.1,74.0,29.73,SSW,203,14.0,16.0,86,0.00,,,0.36,weatherlink.com 1.10,2013-06-03 16:38:00,
2013-06-03 12:53:00,77.9,74.0,29.74,West,281,6.0,14.0,87,0.00,,,0.36,weatherlink.com 1.10,2013-06-03 16:53:00,
2013-06-03 13:09:00,77.5,74.0,29.74,WSW,249,7.0,10.0,88,0.00,,,0.36,weatherlink.com 1.10,2013-06-03 17:09:00,
2013-06-03 13:23:00,77.0,74.0,29.74,SSE,158,5.0,8.0,90,0.01,,,0.37,weatherlink.com 1.10,2013-06-03 17:23:00,
2013-06-03 13:38:00,76.1,73.0,29.73,SSW,211,5.0,9.0,90,0.01,,,0.37,weatherlink.com 1.10,2013-06-03 17:38:00,
2013-06-03 13:53:00,75.2,73.0,29.72,SW,224,2.0,9.0,92,0.04,,,0.40,weatherlink.com 1.10,2013-06-03 17:53:00,
2013-06-03 14:09:00,74.9,73.0,29.73,WSW,238,5.0,7.0,93,0.05,,,0.41,weatherlink.com 1.10,2013-06-03 18:09:00,
2013-06-03 14:24:00,75.3,73.0,29.73,West,266,4.0,12.0,93,0.11,,,0.48,weatherlink.com 1.10,2013-06-03 18:24:00,
2013-06-03 14:39:00,75.1,73.0,29.73,West,262,3.0,16.0,94,0.27,,,0.64,weatherlink.com 1.10,2013-06-03 18:39:00,
2013-06-03 14:54:00,71.8,70.0,29.73,NNE,13,4.0,13.0,93,0.47,,,0.87,weatherlink.com 1.10,2013-06-03 18:54:00,
2013-06-03 15:10:00,70.7,69.0,29.72,WNW,286,1.0,4.0,94,0.50,,,0.91,weatherlink.com 1.10,2013-06-03 19:10:00,
2013-06-03 15:24:00,70.5,69.0,29.73,NE,55,1.0,1.0,95,0.48,,,0.96,weatherlink.com 1.10,2013-06-03 19:24:00,
2013-06-03 15:39:00,70.9,70.0,29.72,SW,216,1.0,2.0,96,0.37,,,1.01,weatherlink.com 1.10,2013-06-03 19:39:00,
2013-06-03 15:55:00,71.2,70.0,29.72,WSW,250,2.0,3.0,95,0.18,,,1.05,weatherlink.com 1.10,2013-06-03 19:55:00,
2013-06-03 16:10:00,70.7,69.0,29.72,West,266,7.0,9.0,95,0.18,,,1.09,weatherlink.com 1.10,2013-06-03 20:10:00,
2013-06-03 16:25:00,70.3,69.0,29.73,West,260,6.0,8.0,95,0.17,,,1.13,weatherlink.com 1.10,2013-06-03 20:25:00,
2013-06-03 16:41:00,70.4,69.0,29.72,West,280,3.0,6.0,96,0.17,,,1.18,weatherlink.com 1.10,2013-06-03 20:41:00,
2013-06-03 16:55:00,70.2,69.0,29.72,West,264,4.0,8.0,96,0.16,,,1.21,weatherlink.com 1.10,2013-06-03 20:55:00,
2013-06-03 17:11:00,69.7,68.0,29.70,SW,217,4.0,7.0,95,0.14,,,1.23,weatherlink.com 1.10,2013-06-03 21:11:00,
2013-06-03 17:25:00,69.6,69.0,29.69,SSW,207,2.0,10.0,96,0.12,,,1.25,weatherlink.com 1.10,2013-06-03 21:25:00,
2013-06-03 17:41:00,69.6,69.0,29.68,SW,219,5.0,8.0,96,0.07,,,1.25,weatherlink.com 1.10,2013-06-03 21:41:00,
2013-06-03 17:56:00,69.8,69.0,29.68,SSW,193,3.0,9.0,96,0.04,,,1.25,weatherlink.com 1.10,2013-06-03 21:56:00,
2013-06-03 18:11:00,70.2,69.0,29.68,SW,217,3.0,7.0,96,0.02,,,1.25,weatherlink.com 1.10,2013-06-03 22:11:00,
2013-06-03 18:26:00,70.3,69.0,29.69,SSW,200,3.0,6.0,96,0.00,,,1.25,weatherlink.com 1.10,2013-06-03 22:26:00,
2013-06-03 18:41:00,70.5,69.0,29.70,West,264,2.0,6.0,96,0.00,,,1.25,weatherlink.com 1.10,2013-06-03 22:41:00,
2013-06-03 18:56:00,70.6,70.0,29.68,SSE,160,4.0,6.0,96,0.00,,,1.25,weatherlink.com 1.10,2013-06-03 22:56:00,
2013-06-03 19:11:00,70.7,70.0,29.69,SW,219,3.0,5.0,96,0.00,,,1.25,weatherlink.com 1.10,2013-06-03 23:11:00,
2013-06-03 19:26:00,70.9,70.0,29.69,SW,214,3.0,5.0,96,0.00,,,1.25,weatherlink.com 1.10,2013-06-03 23:26:00,
2013-06-03 19:41:00,71.0,70.0,29.69,South,184,2.0,5.0,96,0.00,,,1.25,weatherlink.com 1.10,2013-06-03 23:41:00,
2013-06-03 19:57:00,71.0,70.0,29.69,West,276,1.0,3.0,96,0.00,,,1.25,weatherlink.com 1.10,2013-06-03 23:57:00,
2013-06-03 20:12:00,71.1,70.0,29.69,SSW,207,3.0,3.0,96,0.00,,,1.25,weatherlink.com 1.10,2013-06-04 00:12:00,
2013-06-03 20:27:00,71.1,70.0,29.69,WSW,243,1.0,2.0,97,0.00,,,1.25,weatherlink.com 1.10,2013-06-04 00:27:00,
2013-06-03 20:42:00,71.1,70.0,29.70,SSW,197,0.0,2.0,97,0.00,,,1.25,weatherlink.com 1.10,2013-06-04 00:42:00,
2013-06-03 20:57:00,71.1,70.0,29.71,West,273,1.0,2.0,96,0.00,,,1.25,weatherlink.com 1.10,2013-06-04 00:57:00,
2013-06-03 21:12:00,70.8,70.0,29.73,WNW,302,0.0,2.0,96,0.00,,,1.25,weatherlink.com 1.10,2013-06-04 01:12:00,
2013-06-03 21:27:00,70.7,70.0,29.74,SW,215,1.0,1.0,97,0.00,,,1.25,weatherlink.com 1.10,2013-06-04 01:27:00,
2013-06-03 21:43:00,70.6,70.0,29.74,SSW,205,2.0,2.0,97,0.00,,,1.25,weatherlink.com 1.10,2013-06-04 01:43:00,
2013-06-03 21:58:00,70.5,70.0,29.74,SSW,205,4.0,4.0,97,0.00,,,1.25,weatherlink.com 1.10,2013-06-04 01:58:00,
2013-06-03 22:13:00,70.6,70.0,29.74,SW,224,2.0,6.0,97,0.00,,,1.25,weatherlink.com 1.10,2013-06-04 02:13:00,
2013-06-03 22:28:00,70.7,70.0,29.74,SSW,208,3.0,4.0,97,0.00,,,1.25,weatherlink.com 1.10,2013-06-04 02:28:00,
2013-06-03 22:43:00,70.9,70.0,29.74,WSW,242,1.0,5.0,97,0.00,,,1.25,weatherlink.com 1.10,2013-06-04 02:43:00,
2013-06-03 22:58:00,71.1,70.0,29.73,South,170,2.0,3.0,97,0.00,,,1.25,weatherlink.com 1.10,2013-06-04 02:58:00,
2013-06-03 23:13:00,71.1,70.0,29.74,NW,314,1.0,1.0,97,0.00,,,1.25,weatherlink.com 1.10,2013-06-04 03:13:00,
2013-06-03 23:28:00,71.4,71.0,29.75,WNW,301,1.0,2.0,97,0.00,,,1.25,weatherlink.com 1.10,2013-06-04 03:28:00,
2013-06-03 23:43:00,71.0,70.0,29.76,NW,320,0.0,1.0,96,0.00,,,1.25,weatherlink.com 1.10,2013-06-04 03:43:00,
2013-06-03 23:59:00,70.7,70.0,29.77,NW,309,0.0,1.0,96,0.00,,,1.25,weatherlink.com 1.10,2013-06-04 03:59:00,